Regional Weather Roundup
Issued by NWS

Home | Current Version | Previous Version | Text Only | Print | Product List | Glossary Off
Versions: 1 2 3 4 5 6 7 8 9 10 11 12 13 14 15 16 17 18 19 20 21 22 23 24 25 26 27 28 29 30 31 32 33 34 35 36 37 38 39 40 41 42 43 44 45 46 47 48 49 50

752
ASUS44 KLIX 030405
RWRLA
LOUISIANA WEATHER ROUNDUP
NATIONAL WEATHER SERVICE NEW ORLEANS LA
1000 PM CST MON MAR 02 2015

NOTE: "FAIR" INDICATES FEW OR NO CLOUDS BELOW 12,000 FEET WITH NO
      SIGNIFICANT WEATHER AND/OR OBSTRUCTIONS TO VISIBILITY.
      SKY/WX - SKY CONDITION AND SIGNIFICANT WEATHER.
      TMP - AIR TEMPERATURE.    DP   - DEWPOINT TEMPERATURE.
      RH  - RELATIVE HUMIDITY.  PRES - PRESSURE.
      HX  - HEAT INDEX.         WCI  - WIND CHILL INDEX.

*  THESE STATIONS ARE NOT NWS OR FAA STATIONS AND ARE NOT UNDER
   NWS QUALITY CONTROL.

LAZ040-048-061>063-065-066-069-030500-
SOUTHEAST LOUISIANA

CITY           SKY/WX    TMP DP  RH WIND       PRES   REMARKS
N.O. AUDUBON   NOT AVBL
N.O. INTL ARPT CLOUDY    66  64  93 CALM      30.20S FOG
N.O. LAKEFRONT MOCLDY    66  62  87 SE7       30.20F
SLIDELL        CLOUDY    66  66 100 CALM      30.20S FOG
BATON ROUGE    FOG       57  56  96 W3        30.21R VSB 1/4
BOOTHVILLE     FAIR      68  67  96 SE3       30.22R
BELLE CHASSE   MOCLDY    68  63  84 E3        30.20S FOG
BOGALUSA*      FOG       65  63  91 CALM      30.22F VSB 1/2
GALLIANO*      FOG       60  59  97 CALM      30.21S VSB 3/4
NEW ROADS*     FOG       49  49  99 NW6       30.23R VSB 1/2
GONZALES*      CLOUDY    67  67 100 CALM      30.20S FOG
HAMMOND*       NOT AVBL
HOUMA*         FOG       67  67 100 CALM      30.20S VSB 1/4
PORT FOURCHON* CLEAR     70  68  94 SE7       30.23S FOG

$$

LAZ041-044-053-054-030500-
SOUTHWEST LOUISIANA

CITY           SKY/WX    TMP DP  RH WIND       PRES   REMARKS
LAKE CHARLES   FOG       54  54 100 E8        30.19F VSB 1/2
LAFAYETTE      CLOUDY    53  53 100 NE6       30.22R FOG
PATTERSON      MOCLDY    66  64  94 E6        30.20S
SALT POINT       N/A     68  67  96 CALM      30.18S
NEW IBERIA     FOG       57  55  93 N6        30.22R VSB 1/2
CHENAULT AIRPK FOG       53  53  99 NE5       30.20S VSB 1

$$

LAZ027-028-030500-
CENTRAL LOUISIANA

CITY           SKY/WX    TMP DP  RH WIND       PRES   REMARKS
FORT POLK      CLOUDY    48  47  98 E6        30.19F
ALEXANDRIA INT FOG       44  44 100 NE3       30.21F VSB 3/4
ALEXANDRIA     CLOUDY    44  43  96 E5        30.23F

$$

LAZ001-002-030500-
NORTHWEST LOUISIANA

CITY           SKY/WX    TMP DP  RH WIND       PRES   REMARKS
SHREVEPORT     DRIZZLE   42  41  96 E6        30.22F FOG
BARKSDALE AFB  CLOUDY    41  41 100 CALM      30.23F FOG
DTN SHREVEPORT CLOUDY    41  39  93 E3        30.23F FOG

$$

LAZ014-016-030500-
NORTHEAST LOUISIANA

CITY           SKY/WX    TMP DP  RH WIND       PRES   REMARKS
MONROE         CLOUDY    40  40 100 NE5       30.26F FOG
TALLULAH       CLOUDY    44  43  96 CALM      30.25S FOG

$$




USA.gov is the U.S. government's official web portal to all federal, state and local government web resources and services.